Find PAS 8

NORAD ID: 25522 Int'l Des: 1998-065 Owner: PAN Country: US operational
HEO

現在のビュー

3D地球を読み込み中...

PAS 8について

説明を読み込み中...

次回通過

Passes for default location (London). Set your location on the main map for personalized predictions.

高度履歴

Loading altitude history...

軌道要素

1 25522U 98065A 26149.59974536 -.00000213 00000-0 00000-0 0 9991
2 25522 9.1018 63.8149 0285849 305.9609 243.9335 0.95187233 44630
Epoch: May 29, 2026 • Age: 22 hours

現在のステータス

高度 38448.8 km
速度 2.94 km/s
衛星直下点 5.18°N, 133.06°E
打ち上げ日 Nov 4, 1998
運用期間 27.5 years
タイプ other

技術仕様

分類 Payload
質量 3800.00 kg
乾燥質量 1400.00 kg
総質量 3800.00 kg
長さ 6.10 m
直径 2.40 m
スパン 26.00 m
形状 Box + 2 Pan
製造者 LOR
バスタイプ FS-1300
フェーズステータス Unknown Active Status
所有者/国 PAN/US

Most Searched